[[{"header":{"parameterUnit":"m.s-1","parameterCategory":1,"la1":30.2991,"la2":30.254,"lo1":-89.0895,"lo2":-89.0444,"dy":0.0017,"dx":0.0017,"nx":28,"ny":28,"refTime":"2025-09-05T21:00:00:Z","depth":0,"parameterNumber":2,"parameterNumberName":"U-component_of_WINDS"},"data":[0,0,0,0,0,0,0,0,0,0,0,0,0,0,0,0,0,0,0,0,0,0,0,0,0,0,0,0,0,0,0,0,0,0,0,0,0,0,0,0,0,0,0,0,0,0,0,0,0,0,0,0,0,0,0,0,0,0,1.9782,1.9783,0,1.9889,1.989,1.9892,1.9904,1.9903,1.9902,1.9901,2.0009,2.0013,2.0017,0,0,0,0,0,0,0,0,0,0,0,0,0,1.9587,1.959,1.9782,1.9783,1.9785,1.9889,1.989,1.9892,1.9904,1.9903,1.9902,1.9901,2.0008,2.0012,2.0017,0,0,0,0,0,0,0,0,0,0,0,0,0,1.968,1.9591,1.9782,1.9803,1.9806,1.9889,1.989,1.9892,1.9905,1.9903,1.9901,1.99,2.0006,2.0012,2.0018,2.0085,0,0,2.0035,2.0038,0,0,0,0,0,0,0,0,1.9675,1.9688,1.9799,1.9802,1.9806,1.9882,1.9861,1.9957,1.9905,1.9867,1.9901,1.9899,1.9968,1.9977,2.0,2.009,2.0095,2.0036,2.004,2.0042,2.0044,0,0,0,0,0,0,0,1.9669,1.9683,1.9824,1.98,1.9805,1.9807,1.9819,1.9879,1.9925,1.987,1.9872,1.9884,1.9969,1.9995,2.0003,2.0097,2.0036,2.0041,2.0045,2.0047,2.0247,2.0249,0,0,0,0,0,0,1.9658,1.9677,1.9821,1.9827,1.9735,1.9812,1.9825,1.9859,1.9925,1.9933,1.9885,1.9884,1.9986,1.9996,2.0007,2.009,2.0042,2.0047,2.0051,2.0246,2.0248,2.025,0,0,0,0,0,0,1.9654,1.9671,1.9817,1.9753,1.9772,1.9817,1.9855,1.9862,1.9887,1.9936,1.9944,1.9903,1.9985,1.9999,2.0066,2.0094,2.005,2.0055,2.0243,2.0246,2.0249,2.0257,0,0,0,0,0,0,1.9648,1.9669,1.9696,1.9753,1.9775,1.9874,1.9857,1.9865,1.9897,1.9897,1.9954,1.9962,1.9985,2.0057,2.0072,2.0101,2.006,2.0241,2.0245,2.0248,2.0254,2.026,2.0264,0,0,0,0,0,1.9641,1.9693,1.9697,1.9714,1.9809,1.9876,1.9888,1.9913,1.9899,1.9926,1.9958,1.9961,2.0089,2.0064,2.008,2.0112,2.0239,2.0244,2.0248,2.0252,2.0259,2.0264,0,0,0,0,0,0,1.9637,1.9701,1.9706,1.9778,1.9821,1.9878,1.9912,1.9919,1.9966,1.9964,1.9992,2.0005,2.0071,2.0099,2.007,2.0181,2.0163,2.017,2.016,2.0167,2.0172,2.0163,2.0065,0,0,0,0,0,1.9644,1.9694,1.9747,1.9806,1.9827,1.9866,1.9896,1.9911,1.9957,1.9975,2.0012,2.0055,2.0106,2.0138,2.0187,2.0259,2.0271,2.0289,2.0294,2.0297,2.0303,2.0343,2.0351,2.0264,2.0264,2.0263,0,0,1.966,1.9701,1.9731,1.9806,1.9841,1.9891,1.9881,1.9934,1.9971,1.9983,2.0049,2.0077,2.0128,2.0198,2.023,2.0222,2.0331,2.0303,2.0305,2.0309,2.0348,2.0357,2.0364,2.0266,2.0266,2.0265,0,0,1.9714,1.9751,1.9804,1.9839,1.9893,1.9919,1.9932,1.9987,2.0007,2.0073,2.0083,2.0128,2.0213,2.0249,2.0279,2.0347,2.0352,2.0363,2.0388,2.0426,2.0433,2.044,2.0463,2.0472,2.0369,2.0369,2.0369,0,1.9727,1.9803,1.983,1.9883,1.9915,1.9929,1.9983,2.0016,2.0083,2.0105,2.0096,2.0204,2.0239,2.0317,2.0334,2.0358,2.0373,2.0356,2.043,2.0437,2.0443,2.0466,2.0475,2.0369,2.0369,2.0369,2.0369,0,1.9816,1.9868,1.9904,1.9969,2.0006,2.0059,2.0093,2.0128,2.014,2.0167,2.0234,2.0277,2.0335,2.0355,2.0367,2.0435,2.0429,2.0424,2.0407,2.0452,2.0474,2.0483,2.0371,2.037,2.037,2.037,0,0,1.9869,1.9949,1.9961,1.9991,2.0052,2.0093,2.0147,2.0204,2.0232,2.0278,2.0323,2.0396,2.0393,2.0426,2.0443,2.0477,2.0528,2.0469,2.0471,2.0478,2.0605,2.0607,2.0617,2.0532,2.0534,2.0536,2.0601,0,1.993,2.0026,2.0052,2.0133,2.0182,2.0196,2.0243,2.0285,2.0312,2.0357,2.0386,2.0437,2.0429,2.0449,2.0483,2.0515,2.0554,2.0511,2.0574,2.0576,2.056,2.0629,2.0631,2.069,2.0609,2.0611,2.0612,0,2.0013,2.0061,2.0148,2.0203,2.0224,2.0266,2.032,2.0363,2.0411,2.0428,2.0466,2.048,2.0536,2.0516,2.0593,2.0563,2.0591,2.061,2.0613,2.0619,2.0596,2.0636,2.071,2.0718,2.0626,2.0625,2.0624,0,2.0043,2.0129,2.0192,2.0217,2.0283,2.0312,2.034,2.0387,2.042,2.0467,2.0489,2.0542,2.0571,2.0612,2.064,2.0623,2.0715,2.0698,2.073,2.0729,2.0748,2.0746,2.0827,2.0767,2.0767,2.0767,2.0767,0,2.0107,2.016,2.0206,2.0245,2.0304,2.0333,2.039,2.0419,2.0461,2.0505,2.0521,2.0562,2.0597,2.0643,2.0665,2.0725,2.0739,2.0753,2.0758,2.0751,2.0749,2.0769,2.0765,2.0769,2.0769,2.0768,2.0768,0,2.015,2.0184,2.0253,2.031,2.0325,2.0366,2.0414,2.0452,2.0479,2.0535,2.055,2.0592,2.0647,2.0679,2.0748,2.0763,2.083,2.0834,2.0814,2.0816,2.0846,2.0843,2.0941,2.0956,2.0887,2.0888,2.0889,0,2.0189,2.0229,2.029,2.0321,2.035,2.04,2.0434,2.0464,2.0499,2.0557,2.0588,2.0644,2.069,2.0776,2.0813,2.0866,2.0871,2.0902,2.0879,2.087,2.087,2.0867,2.0871,2.0905,2.0906,2.0906,2.0907,0,2.0253,2.0268,2.0316,2.0371,2.041,2.0454,2.0498,2.0523,2.056,2.0598,2.0655,2.069,2.0761,2.0816,2.0872,2.0901,2.091,2.0914,2.0924,2.0917,2.0903,2.091,2.0824,2.0911,2.0911,2.091,2.091,2.091,2.0295,2.0331,2.038,2.0433,2.047,2.051,2.0549,2.0581,2.0629,2.0689,2.0704,2.0763,2.081,2.0887,2.0917,2.0964,2.0958,2.0973,2.0977,2.098,2.098,2.0897,2.0974,2.0974,2.0974,2.0974,2.0974,0,2.036,2.0392,2.0441,2.0502,2.0544,2.0549,2.0598,2.0632,2.0684,2.0728,2.0773,2.0838,2.0892,2.0933,2.0988,2.1017,2.1022,2.103,2.1028,2.1034,2.0982,2.0968,2.1025,2.1025,2.1025,2.1025,2.1025,2.1025,2.0399,2.0461,2.0481,2.0562,2.0594,2.0652,2.0679,2.0717,2.0752,2.0823,2.0868,2.0895,2.0938,2.0996,2.1045,2.1056,2.1075,2.1082,2.1093,2.1044,2.1038,2.1033,2.1019,2.1086,2.1086,2.1142,2.1142,2.1142]},{"header":{"parameterUnit":"m.s-1","parameterCategory":1,"la1":30.2991,"la2":30.254,"lo1":-89.0895,"lo2":-89.0444,"dy":0.0017,"dx":0.0017,"nx":28,"ny":28,"refTime":"2025-09-05T21:00:00:Z","depth":0,"parameterNumber":3,"parameterNumberName":"V-component_of_WINDS"},"data":[0,0,0,0,0,0,0,0,0,0,0,0,0,0,0,0,0,0,0,0,0,0,0,0,0,0,0,0,0,0,0,0,0,0,0,0,0,0,0,0,0,0,0,0,0,0,0,0,0,0,0,0,0,0,0,0,0,0,-0.4774,-0.4773,0,-0.4701,-0.47,-0.47,-0.4675,-0.4676,-0.4676,-0.4676,-0.4601,-0.4599,-0.4596,0,0,0,0,0,0,0,0,0,0,0,0,0,-0.489,-0.4888,-0.4774,-0.4773,-0.4772,-0.4701,-0.47,-0.4699,-0.4675,-0.4676,-0.4676,-0.4676,-0.4602,-0.4599,-0.4596,0,0,0,0,0,0,0,0,0,0,0,0,0,-0.4831,-0.4887,-0.4774,-0.4751,-0.4749,-0.4702,-0.47,-0.4699,-0.4675,-0.4676,-0.4676,-0.4677,-0.4603,-0.4599,-0.4596,-0.4565,0,0,-0.4585,-0.4584,0,0,0,0,0,0,0,0,-0.4834,-0.4826,-0.4756,-0.4753,-0.475,-0.4698,-0.4714,-0.4654,-0.4675,-0.4703,-0.4676,-0.4677,-0.4633,-0.4627,-0.4612,-0.4562,-0.4559,-0.4585,-0.4583,-0.4582,-0.4581,0,0,0,0,0,0,0,-0.4838,-0.4829,-0.4745,-0.4755,-0.4751,-0.4745,-0.4737,-0.4702,-0.4666,-0.4701,-0.4699,-0.4691,-0.4631,-0.4616,-0.461,-0.4558,-0.4585,-0.4582,-0.458,-0.4579,-0.4479,-0.4478,0,0,0,0,0,0,-0.4846,-0.4833,-0.4747,-0.4743,-0.4794,-0.4742,-0.4733,-0.4714,-0.4667,-0.466,-0.469,-0.469,-0.4621,-0.4614,-0.4608,-0.4568,-0.4582,-0.4578,-0.4576,-0.4479,-0.4479,-0.4478,0,0,0,0,0,0,-0.4849,-0.4839,-0.475,-0.4787,-0.4776,-0.474,-0.4718,-0.4712,-0.4697,-0.4659,-0.4652,-0.4681,-0.4621,-0.4612,-0.4576,-0.4565,-0.4577,-0.4574,-0.448,-0.4479,-0.4478,-0.449,0,0,0,0,0,0,-0.4852,-0.484,-0.4828,-0.4787,-0.4774,-0.472,-0.4718,-0.4711,-0.4691,-0.469,-0.4648,-0.4642,-0.4621,-0.4581,-0.4573,-0.4561,-0.4571,-0.4481,-0.448,-0.4479,-0.4491,-0.449,-0.4489,0,0,0,0,0,-0.4857,-0.4834,-0.4828,-0.4817,-0.4758,-0.472,-0.4712,-0.4689,-0.469,-0.4678,-0.4654,-0.4643,-0.4569,-0.4578,-0.4568,-0.4555,-0.4481,-0.448,-0.4479,-0.4491,-0.449,-0.4489,0,0,0,0,0,0,-0.4874,-0.4828,-0.4821,-0.4784,-0.4756,-0.4716,-0.4699,-0.4689,-0.4659,-0.4659,-0.4631,-0.4622,-0.4588,-0.4568,-0.4579,-0.4523,-0.4524,-0.4521,-0.4537,-0.4536,-0.4535,-0.454,-0.4568,0,0,0,0,0,-0.4874,-0.4847,-0.4808,-0.478,-0.4766,-0.4735,-0.4718,-0.4703,-0.4672,-0.466,-0.4633,-0.4603,-0.4573,-0.4554,-0.4524,-0.4488,-0.4479,-0.4474,-0.4474,-0.4473,-0.447,-0.445,-0.4447,-0.4474,-0.4474,-0.4474,0,0,-0.4873,-0.4845,-0.4829,-0.4783,-0.4759,-0.4731,-0.4725,-0.4696,-0.4675,-0.4655,-0.4619,-0.4599,-0.4564,-0.4528,-0.451,-0.451,-0.4461,-0.4472,-0.4472,-0.4469,-0.4448,-0.4446,-0.4444,-0.4473,-0.4473,-0.4473,0,0,-0.4856,-0.4833,-0.4806,-0.4783,-0.4747,-0.4727,-0.4721,-0.4682,-0.4668,-0.4632,-0.4616,-0.4591,-0.4539,-0.4515,-0.4496,-0.4472,-0.4461,-0.4463,-0.4459,-0.4439,-0.4437,-0.4435,-0.4426,-0.4423,-0.446,-0.446,-0.446,0,-0.4859,-0.4817,-0.4794,-0.4766,-0.4745,-0.4727,-0.47,-0.4678,-0.4635,-0.4621,-0.4622,-0.4557,-0.4532,-0.449,-0.4485,-0.447,-0.4462,-0.4467,-0.4439,-0.4437,-0.4435,-0.4425,-0.4422,-0.4461,-0.4461,-0.4461,-0.4461,0,-0.4822,-0.4793,-0.4776,-0.4735,-0.4713,-0.4685,-0.4658,-0.4639,-0.4626,-0.4606,-0.4569,-0.4539,-0.4503,-0.4492,-0.4479,-0.4448,-0.4449,-0.4445,-0.4445,-0.4433,-0.4424,-0.442,-0.4461,-0.4461,-0.4461,-0.4461,0,0,-0.4813,-0.4761,-0.4755,-0.4736,-0.4696,-0.4672,-0.4644,-0.4609,-0.4593,-0.4564,-0.4539,-0.4497,-0.4493,-0.4471,-0.4455,-0.4438,-0.442,-0.4436,-0.4435,-0.4433,-0.4384,-0.4386,-0.4383,-0.4413,-0.4413,-0.4412,-0.4387,0,-0.4791,-0.474,-0.4719,-0.4677,-0.465,-0.4632,-0.4608,-0.458,-0.4561,-0.4535,-0.4513,-0.4483,-0.4481,-0.4468,-0.445,-0.4426,-0.441,-0.4428,-0.4389,-0.4388,-0.4397,-0.4378,-0.438,-0.4358,-0.4383,-0.4382,-0.4382,0,-0.4758,-0.4729,-0.4685,-0.4648,-0.4636,-0.4614,-0.458,-0.4556,-0.4524,-0.4511,-0.4488,-0.4473,-0.4443,-0.4446,-0.4404,-0.4417,-0.44,-0.4386,-0.4385,-0.4379,-0.4383,-0.4371,-0.435,-0.4346,-0.4376,-0.4377,-0.4377,0,-0.4755,-0.4705,-0.4672,-0.4656,-0.4613,-0.4598,-0.4579,-0.4548,-0.4529,-0.45,-0.4487,-0.4454,-0.4436,-0.4411,-0.4388,-0.4393,-0.4348,-0.4349,-0.4336,-0.4336,-0.4325,-0.4326,-0.43,-0.4317,-0.4317,-0.4317,-0.4317,0,-0.4731,-0.4705,-0.467,-0.4649,-0.4619,-0.4595,-0.4566,-0.4546,-0.4519,-0.4494,-0.4478,-0.4455,-0.4426,-0.44,-0.4382,-0.4349,-0.4341,-0.433,-0.4325,-0.433,-0.4332,-0.4318,-0.4318,-0.4316,-0.4316,-0.4316,-0.4317,0,-0.4722,-0.4698,-0.4661,-0.4623,-0.4613,-0.4592,-0.456,-0.4539,-0.452,-0.4489,-0.448,-0.4449,-0.4417,-0.4392,-0.435,-0.4338,-0.4303,-0.4299,-0.4314,-0.4311,-0.4298,-0.4299,-0.4261,-0.4255,-0.4277,-0.4277,-0.4277,0,-0.4708,-0.4687,-0.4648,-0.463,-0.4611,-0.4583,-0.4563,-0.454,-0.452,-0.4483,-0.4467,-0.4434,-0.4406,-0.4355,-0.4329,-0.4297,-0.4291,-0.428,-0.4286,-0.4292,-0.4289,-0.429,-0.4288,-0.4279,-0.4279,-0.4278,-0.4278,0,-0.4685,-0.4675,-0.4647,-0.4615,-0.4591,-0.4565,-0.4538,-0.4525,-0.4496,-0.4474,-0.4442,-0.442,-0.4378,-0.4345,-0.431,-0.4291,-0.428,-0.4277,-0.4272,-0.4277,-0.4286,-0.428,-0.431,-0.4278,-0.4278,-0.4278,-0.4278,-0.4278,-0.4672,-0.4653,-0.4622,-0.4592,-0.4569,-0.4545,-0.4524,-0.4502,-0.4474,-0.4438,-0.4426,-0.4392,-0.4361,-0.4314,-0.4294,-0.4267,-0.4267,-0.426,-0.4257,-0.4256,-0.4256,-0.4291,-0.4261,-0.4261,-0.4261,-0.4261,-0.4261,0,-0.4648,-0.4628,-0.46,-0.4563,-0.4539,-0.4532,-0.4502,-0.4482,-0.4453,-0.4425,-0.4399,-0.4361,-0.4329,-0.4301,-0.4268,-0.4252,-0.4246,-0.4244,-0.4244,-0.424,-0.4259,-0.4266,-0.4249,-0.4249,-0.4249,-0.4249,-0.4249,-0.4249,-0.4633,-0.4599,-0.4585,-0.454,-0.452,-0.4487,-0.447,-0.4448,-0.4426,-0.4385,-0.4358,-0.434,-0.4313,-0.4278,-0.4248,-0.4241,-0.4229,-0.4228,-0.4219,-0.4237,-0.4239,-0.424,-0.4247,-0.4226,-0.4226,-0.4202,-0.4202,-0.4202]}]]